Latest Coastal Weather Observations for Kingfish B

IDV60701

Issued at 4:51 pm EDT Sunday 7 February 2016 (issued every 10 minutes, with the page automatically refreshed every 10 minutes)

About coastal observations | Map of coastal stations | Coastal observations for VIC | Marine services | Other Formats
Station Details ID: 400139 Name: KINGFISH B (PLATFORM) Lat: -38.60 Lon: 148.19 Height: 31.4 m
Data from the previous 72 hours. | See also: Recent months for locations in Victoria
Date/Time
EDT
Temp

°C
Wind Pressure Rain
since 9am
mm
Weather Cloud Vis
km
Sea
Height
m
Swell
Dir
 
Speed
knots
Gust
knots
hPa Trend Height
m
Period
s
Dir
07/04:50pm 21.3 CALM 0 1 1016.0 - - - - - - - - -
07/04:40pm 21.3 CALM 0 1 1016.0 - - - - - - - - -
07/04:30pm 21.3 CALM 0 1 1016.1 - - - - - - - - -
07/04:20pm 21.3 CALM 0 1 1016.1 - - - - - - - - -
07/04:10pm 21.3 CALM 0 1 1016.2 - - - - - - - - -
07/04:00pm 21.3 CALM 0 0 1016.2 - - - - - - - - -
07/03:50pm 21.4 CALM 0 1 1016.2 - - - - - - - - -
07/03:40pm 21.5 CALM 0 0 1016.1 - - - - - - - - -
07/03:30pm 21.5 CALM 0 0 1016.3 - - - - - - - - -
07/03:20pm 21.5 CALM 0 0 1016.4 - - - - - - - - -
07/03:10pm 21.6 CALM 0 0 1016.5 - - - - - - - - -
07/03:00pm 21.8 CALM 0 0 1016.5 - - - - - - - - -
07/02:50pm 21.9 CALM 0 0 1016.4 - - - - - - - - -
07/02:40pm 22.0 CALM 0 0 1016.4 - - - - - - - - -
07/02:30pm 21.9 CALM 0 1 1016.5 - - - - - - - - -
07/02:20pm 21.9 CALM 0 1 1016.4 - - - - - - - - -
07/02:10pm 22.0 NNE 1 1 1016.3 - - - - - - - - -
07/02:00pm 22.2 CALM 0 1 1016.3 - - - - - - - - -
07/01:50pm 22.3 CALM 0 1 1016.5 - - - - - - - - -
07/01:40pm 22.3 CALM 0 1 1016.6 - - - - - - - - -
07/01:30pm 22.2 CALM 0 1 1016.4 - - - - - - - - -
07/01:20pm 22.4 CALM 0 2 1016.5 - - - - - - - - -
07/01:10pm 22.5 CALM 0 2 1016.5 - - - - - - - - -
07/01:00pm 22.6 NNE 1 2 1016.5 - - - - - - - - -
07/12:50pm 22.7 NNE 1 2 1016.6 - - - - - - - - -
07/12:40pm 22.6 NNE 1 2 1016.6 - - - - - - - - -
07/12:30pm 22.6 N 2 3 1016.5 - - - - - - - - -
07/12:20pm 22.8 NNE 2 3 1016.4 - - - - - - - - -
07/12:10pm 22.9 NNE 2 3 1016.6 - - - - - - - - -
07/12:00pm 23.0 N 2 3 1016.5 - - - - - - - - -
07/11:50am 23.2 N 2 4 1016.5 - - - - - - - - -
07/11:40am 23.2 N 2 4 1016.5 - - - - - - - - -
07/11:30am 23.3 N 2 4 1016.5 - - - - - - - - -
07/11:20am 23.2 N 2 3 1016.4 - - - - - - - - -
07/11:10am 23.4 N 2 4 1016.4 - - - - - - - - -
07/11:00am 23.6 N 2 3 1016.4 - - - - - - - - -
07/10:50am 23.7 N 2 4 1016.3 - - - - - - - - -
07/10:40am 23.8 N 2 4 1016.3 - - - - - - - - -
07/10:30am 23.5 N 3 4 1016.3 - - - - - - - - -
07/10:20am 23.2 N 4 5 1016.3 - - - - - - - - -
07/10:10am 22.8 NNE 5 6 1016.2 - - - - - - - - -
07/10:00am 22.7 NNE 6 7 1016.1 - - - - - - - - -
07/09:50am 22.8 NNE 6 7 1016.1 - - - - - - - - -
07/09:40am 22.9 NNE 6 8 1016.0 - - - - - - - - -
07/09:30am 23.0 NNE 6 8 1016.1 - - - - - - - - -
07/09:20am 23.0 NNE 6 8 1016.2 - - - - - - - - -
07/09:10am 22.9 NNE 7 8 1016.3 - - - - - - - - -
07/09:00am 23.0 N 7 8 1016.2 - - - - - - - - -
07/08:50am 22.6 N 8 10 1016.1 - - - - - - - - -
07/08:40am 22.4 NNE 9 10 1016.0 - - - - - - - - -
07/08:30am 22.2 NNE 9 11 1016.0 - - - - - - - - -
07/08:20am 21.9 NNE 8 10 1015.8 - - - - - - - - -
07/08:10am 21.4 NNE 10 12 1015.7 - - - - - - - - -
07/08:00am 20.9 NNE 12 14 1015.6 - - - - - - - - -
07/07:50am 20.5 NNE 12 14 1015.4 - - - - - - - - -
07/07:40am 20.1 NE 13 15 1015.3 - - - - - - - - -
07/07:30am 20.0 NE 14 15 1015.2 - - - - - - - - -
07/07:20am 20.0 NE 13 15 1015.2 - - - - - - - - -
07/07:10am 20.1 NE 13 15 1015.2 - - - - - - - - -
07/07:00am 20.0 NE 14 16 1015.0 - - - - - - - - -
07/06:50am 20.1 NE 15 16 1015.0 - - - - - - - - -
07/06:40am 20.1 NE 14 15 1015.0 - - - - - - - - -
07/06:30am 20.2 NE 14 16 1015.0 - - - - - - - - -
07/06:20am 20.2 NE 14 16 1014.9 - - - - - - - - -
07/06:00am 20.3 NE 14 16 1015.1 - - - - - - - - -
07/05:50am 20.4 NE 15 17 1015.0 - - - - - - - - -
07/05:40am 20.3 NE 15 18 1014.9 - - - - - - - - -
07/05:30am 20.3 NE 16 18 1014.9 - - - - - - - - -
07/05:20am 20.4 NE 17 19 1015.0 - - - - - - - - -
07/05:10am 20.4 NE 16 18 1015.1 - - - - - - - - -
07/05:00am 20.5 NE 16 19 1015.2 - - - - - - - - -
07/04:50am 20.5 NE 16 19 1015.2 - - - - - - - - -
07/04:40am 20.5 NE 17 20 1015.2 - - - - - - - - -
07/04:30am 20.5 NE 17 20 1015.3 - - - - - - - - -
07/04:20am 20.6 NE 18 20 1015.3 - - - - - - - - -
07/04:10am 20.6 NE 18 21 1015.3 - - - - - - - - -
07/04:00am 20.7 NE 19 22 1015.4 - - - - - - - - -
07/03:50am 20.7 NE 19 22 1015.5 - - - - - - - - -
07/03:40am 20.8 NE 20 22 1015.6 - - - - - - - - -
07/03:30am 20.8 NE 19 23 1015.6 - - - - - - - - -
07/03:20am 20.8 NE 22 24 1015.6 - - - - - - - - -
07/03:10am 20.8 NE 21 24 1015.7 - - - - - - - - -
07/03:00am 20.8 NE 21 24 1015.8 - - - - - - - - -
07/02:50am 20.9 NE 20 23 1016.0 - - - - - - - - -
07/02:40am 20.9 NE 21 25 1016.1 - - - - - - - - -
07/02:30am 20.8 NE 22 26 1016.1 - - - - - - - - -
07/02:20am 20.8 NE 22 25 1016.2 - - - - - - - - -
07/02:10am 20.9 NE 21 25 1016.2 - - - - - - - - -
07/02:00am 20.9 NE 21 26 1016.3 - - - - - - - - -
07/01:50am 20.8 NE 22 25 1016.3 - - - - - - - - -
07/01:40am 20.9 NE 22 25 1016.3 - - - - - - - - -
07/01:30am 20.9 NE 21 25 1016.3 - - - - - - - - -
07/01:20am 20.9 NE 20 24 1016.4 - - - - - - - - -
07/01:10am 20.9 NE 22 25 1016.5 - - - - - - - - -
07/01:00am 20.9 NE 21 25 1016.6 - - - - - - - - -
07/12:50am 20.9 NE 22 25 1016.7 - - - - - - - - -
07/12:40am 21.0 NE 19 23 1016.8 - - - - - - - - -
07/12:30am 21.0 NE 20 24 1016.9 - - - - - - - - -
07/12:20am 21.0 NE 19 24 1017.0 - - - - - - - - -
07/12:10am 21.0 NE 20 23 1017.0 - - - - - - - - -
07/12:00am 21.0 NE 17 23 1017.2 - - - - - - - - -
 
Date/Time
EDT
Temp

°C
Wind Pressure Rain
since 9am
mm
Weather Cloud Vis
km
Sea
Height
m
Swell
Dir
 
Speed
knots
Gust
knots
hPa Trend Height
m
Period
s
Dir
06/11:50pm 21.0 NE 16 21 1017.1 - - - - - - - - -
06/11:40pm 21.0 NE 17 22 1017.1 - - - - - - - - -
06/11:30pm 21.0 NE 16 23 1017.1 - - - - - - - - -
06/11:20pm 21.0 NE 18 22 1017.1 - - - - - - - - -
06/11:10pm 21.0 NE 17 22 1017.1 - - - - - - - - -
06/11:00pm 21.0 NE 16 22 1017.1 - - - - - - - - -
06/10:50pm 21.0 NE 17 23 1017.1 - - - - - - - - -
06/10:40pm 21.0 ENE 17 23 1017.0 - - - - - - - - -
06/10:30pm 21.0 ENE 17 24 1016.8 - - - - - - - - -
06/10:20pm 21.0 ENE 18 23 1016.7 - - - - - - - - -
06/10:10pm 21.0 ENE 17 24 1016.8 - - - - - - - - -
06/10:00pm 21.0 ENE 19 25 1016.6 - - - - - - - - -
06/09:50pm 21.0 ENE 19 26 1016.6 - - - - - - - - -
06/09:40pm 21.0 ENE 21 24 1016.6 - - - - - - - - -
06/09:30pm 21.1 ENE 20 24 1016.6 - - - - - - - - -
06/09:20pm 21.1 ENE 19 23 1016.7 - - - - - - - - -
06/09:10pm 21.1 ENE 19 23 1016.7 - - - - - - - - -
06/09:00pm 21.1 ENE 20 23 1016.6 - - - - - - - - -
06/08:50pm 21.1 ENE 20 23 1016.6 - - - - - - - - -
06/08:40pm 21.1 ENE 19 23 1016.7 - - - - - - - - -
06/08:30pm 21.1 ENE 19 22 1016.7 - - - - - - - - -
06/08:20pm 21.1 ENE 19 22 1016.6 - - - - - - - - -
06/08:10pm 21.1 ENE 19 22 1016.6 - - - - - - - - -
06/08:00pm 21.2 ENE 18 22 1016.6 - - - - - - - - -
06/07:50pm 21.2 ENE 19 23 1016.4 - - - - - - - - -
06/07:40pm 21.1 ENE 19 22 1016.4 - - - - - - - - -
06/07:30pm 21.1 ENE 19 22 1016.4 - - - - - - - - -
06/07:20pm 21.1 ENE 18 21 1016.3 - - - - - - - - -
06/07:10pm 21.0 ENE 18 21 1016.4 - - - - - - - - -
06/07:00pm 21.1 ENE 17 20 1016.4 - - - - - - - - -
06/06:50pm 21.1 ENE 18 21 1016.4 - - - - - - - - -
06/06:40pm 21.0 ENE 18 21 1016.4 - - - - - - - - -
06/06:30pm 21.1 ENE 17 20 1016.5 - - - - - - - - -
06/06:20pm 21.1 ENE 16 19 1016.7 - - - - - - - - -
06/06:10pm 21.1 ENE 17 20 1016.7 - - - - - - - - -
06/06:00pm 21.0 ENE 17 20 1016.7 - - - - - - - - -
06/05:50pm 21.1 ENE 17 20 1016.8 - - - - - - - - -
06/05:40pm 21.0 ENE 17 20 1016.8 - - - - - - - - -
06/05:30pm 21.1 ENE 17 20 1016.9 - - - - - - - - -
06/05:20pm 21.1 ENE 16 19 1017.0 - - - - - - - - -
06/05:10pm 21.0 ENE 17 19 1017.0 - - - - - - - - -
06/05:00pm 21.1 ENE 16 20 1017.0 - - - - - - - - -
06/04:50pm 21.0 ENE 17 20 1017.1 - - - - - - - - -
06/04:40pm 21.0 ENE 16 19 1017.3 - - - - - - - - -
06/04:30pm 21.0 ENE 17 20 1017.3 - - - - - - - - -
06/04:20pm 21.0 ENE 16 20 1017.4 - - - - - - - - -
06/04:10pm 21.1 ENE 14 19 1017.5 - - - - - - - - -
06/04:00pm 21.0 ENE 14 18 1017.6 - - - - - - - - -
06/03:40pm 21.0 ENE 14 17 1017.9 - - - - - - - - -
06/03:30pm 21.1 NE 11 16 1017.9 - - - - - - - - -
06/03:20pm 21.0 ENE 12 16 1018.0 - - - - - - - - -
06/03:10pm 21.0 ENE 12 15 1018.1 - - - - - - - - -
06/03:00pm 21.0 ENE 11 13 1018.2 - - - - - - - - -
06/02:50pm 21.1 ENE 11 14 1018.4 - - - - - - - - -
06/02:40pm 21.2 ENE 10 13 1018.6 - - - - - - - - -
06/02:30pm 21.3 ENE 9 13 1018.6 - - - - - - - - -
06/02:20pm 21.4 ENE 12 15 1018.7 - - - - - - - - -
06/02:10pm 21.5 ENE 12 15 1018.7 - - - - - - - - -
06/02:00pm 21.7 ENE 10 14 1018.8 - - - - - - - - -
06/01:50pm 21.5 NE 8 13 1018.9 - - - - - - - - -
06/01:40pm 21.6 NE 10 12 1019.0 - - - - - - - - -
06/01:30pm 21.7 NE 11 12 1019.2 - - - - - - - - -
06/01:20pm 21.6 NE 9 13 1019.2 - - - - - - - - -
06/01:10pm 21.7 NE 11 14 1019.2 - - - - - - - - -
06/01:00pm 21.7 NE 11 13 1019.2 - - - - - - - - -
06/12:50pm 21.7 NE 10 14 1019.2 - - - - - - - - -
06/12:40pm 21.7 NE 8 11 1019.3 - - - - - - - - -
06/12:30pm 21.8 NE 8 11 1019.3 - - - - - - - - -
06/12:20pm 21.9 NE 9 12 1019.4 - - - - - - - - -
06/12:10pm 21.9 NE 7 10 1019.4 - - - - - - - - -
06/12:00pm 22.0 NE 7 9 1019.4 - - - - - - - - -
06/11:50am 22.0 NE 7 10 1019.5 - - - - - - - - -
06/11:40am 22.0 NE 8 10 1019.5 - - - - - - - - -
06/11:30am 21.8 NE 9 11 1019.5 - - - - - - - - -
06/11:20am 21.9 NE 11 13 1019.6 - - - - - - - - -
06/11:10am 21.7 NE 11 13 1019.6 - - - - - - - - -
06/11:00am 21.3 NE 10 13 1019.6 - - - - - - - - -
06/10:50am 20.8 NE 8 12 1019.7 - - - - - - - - -
06/10:40am 20.0 NE 7 11 1019.8 - - - - - - - - -
06/10:30am 19.7 NE 12 15 1019.8 - - - - - - - - -
06/10:20am 20.2 NE 14 15 1019.8 - - - - - - - - -
06/10:10am 20.5 NE 11 17 1019.8 - - - - - - - - -
06/10:00am 20.5 NE 7 9 1019.9 - - - - - - - - -
06/09:50am 20.6 NNE 8 11 1019.9 - - - - - - - - -
06/09:40am 21.1 NNE 12 16 1019.8 - - - - - - - - -
06/09:30am 21.4 NE 9 13 1019.8 - - - - - - - - -
06/09:20am 21.9 NE 8 12 1019.7 - - - - - - - - -
06/09:10am 22.1 NE 8 12 1019.6 - - - - - - - - -
06/09:00am 22.5 NE 8 12 1019.5 - - - - - - - - -
06/08:50am 22.5 NE 9 12 1019.5 - - - - - - - - -
06/08:40am 21.8 NE 8 12 1019.4 - - - - - - - - -
06/08:30am 21.5 NE 10 14 1019.3 - - - - - - - - -
06/08:20am 21.3 NE 8 13 1019.2 - - - - - - - - -
06/08:10am 20.6 NE 10 12 1019.2 - - - - - - - - -
06/08:00am 19.9 NE 11 14 1019.1 - - - - - - - - -
06/07:50am 19.8 NE 10 13 1019.1 - - - - - - - - -
06/07:40am 19.8 NE 8 11 1019.1 - - - - - - - - -
06/07:30am 19.6 NE 8 12 1019.1 - - - - - - - - -
06/07:20am 19.5 NE 8 11 1019.1 - - - - - - - - -
06/07:10am 19.5 NE 8 10 1018.9 - - - - - - - - -
06/07:00am 19.6 ENE 10 14 1018.9 - - - - - - - - -
06/06:50am 19.6 ENE 10 14 1018.8 - - - - - - - - -
06/06:40am 19.6 ENE 10 13 1018.9 - - - - - - - - -
06/06:30am 19.8 ENE 9 14 1018.8 - - - - - - - - -
06/06:20am 19.8 ENE 10 15 1018.8 - - - - - - - - -
06/06:10am 19.7 NE 9 12 1018.8 - - - - - - - - -
06/06:00am 19.8 ENE 11 14 1018.8 - - - - - - - - -
06/05:50am 19.8 ENE 10 13 1018.8 - - - - - - - - -
06/05:40am 19.7 ENE 9 13 1018.9 - - - - - - - - -
06/05:30am 19.7 ENE 9 13 1018.9 - - - - - - - - -
06/05:20am 19.8 ENE 11 14 1019.0 - - - - - - - - -
06/05:10am 19.8 ENE 13 16 1019.1 - - - - - - - - -
06/05:00am 19.8 ENE 11 15 1019.2 - - - - - - - - -
06/04:50am 19.8 ENE 12 16 1019.2 - - - - - - - - -
06/04:40am 19.8 ENE 14 16 1019.2 - - - - - - - - -
06/04:30am 19.8 ENE 13 16 1019.3 - - - - - - - - -
06/04:20am 19.8 ENE 13 16 1019.4 - - - - - - - - -
06/04:10am 19.8 ENE 11 14 1019.5 - - - - - - - - -
06/04:00am 19.7 ENE 12 15 1019.6 - - - - - - - - -
06/03:50am 19.8 ENE 12 17 1019.7 - - - - - - - - -
06/03:40am 19.7 ENE 11 16 1019.7 - - - - - - - - -
06/03:30am 19.7 ENE 11 16 1019.8 - - - - - - - - -
06/03:20am 19.7 ENE 10 15 1019.9 - - - - - - - - -
06/03:10am 19.7 ENE 12 16 1020.1 - - - - - - - - -
06/03:00am 19.7 ENE 11 16 1020.2 - - - - - - - - -
06/02:50am 19.7 ENE 12 16 1020.3 - - - - - - - - -
06/02:40am 19.6 ENE 11 16 1020.5 - - - - - - - - -
06/02:30am 19.6 ENE 12 16 1020.7 - - - - - - - - -
06/02:20am 19.6 ENE 14 17 1020.7 - - - - - - - - -
06/02:10am 19.6 ENE 13 16 1020.8 - - - - - - - - -
06/02:00am 19.6 ENE 13 17 1020.9 - - - - - - - - -
06/01:50am 19.5 ENE 13 16 1020.9 - - - - - - - - -
06/01:40am 19.5 ENE 14 17 1021.0 - - - - - - - - -
06/01:30am 19.4 ENE 15 18 1021.0 - - - - - - - - -
06/01:20am 19.5 ENE 14 17 1021.1 - - - - - - - - -
06/01:10am 19.4 ENE 15 18 1021.0 - - - - - - - - -
06/01:00am 19.5 ENE 15 18 1021.1 - - - - - - - - -
06/12:50am 19.4 ENE 16 18 1021.2 - - - - - - - - -
06/12:40am 19.4 ENE 15 19 1021.3 - - - - - - - - -
06/12:20am 19.5 ENE 15 18 1021.4 - - - - - - - - -
06/12:10am 19.4 ENE 16 18 1021.5 - - - - - - - - -
06/12:00am 19.4 ENE 15 19 1021.5 - - - - - - - - -
 
Date/Time
EDT
Temp

°C
Wind Pressure Rain
since 9am
mm
Weather Cloud Vis
km
Sea
Height
m
Swell
Dir
 
Speed
knots
Gust
knots
hPa Trend Height
m
Period
s
Dir
05/11:50pm 19.4 E 15 18 1021.6 - - - - - - - - -
05/11:40pm 19.5 E 15 18 1021.7 - - - - - - - - -
05/11:30pm 19.5 E 15 18 1021.7 - - - - - - - - -
05/11:20pm 19.5 E 14 18 1021.8 - - - - - - - - -
05/11:10pm 19.5 E 15 17 1021.9 - - - - - - - - -
05/11:00pm 19.5 E 15 18 1021.8 - - - - - - - - -
05/10:50pm 19.5 E 15 17 1021.8 - - - - - - - - -
05/10:40pm 19.5 E 15 17 1021.7 - - - - - - - - -
05/10:30pm 19.5 E 15 18 1021.7 - - - - - - - - -
05/10:20pm 19.5 E 15 17 1021.7 - - - - - - - - -
05/10:10pm 19.6 E 14 18 1021.6 - - - - - - - - -
05/10:00pm 19.6 E 14 18 1021.5 - - - - - - - - -
05/09:50pm 19.5 E 14 17 1021.5 - - - - - - - - -
05/09:40pm 19.5 ENE 14 16 1021.4 - - - - - - - - -
05/09:30pm 19.6 E 14 17 1021.3 - - - - - - - - -
05/09:20pm 19.6 E 14 16 1021.3 - - - - - - - - -
05/09:10pm 19.7 E 14 16 1021.3 - - - - - - - - -
05/09:00pm 19.7 E 13 16 1021.1 - - - - - - - - -
05/08:50pm 19.7 E 14 17 1021.0 - - - - - - - - -
05/08:40pm 19.7 E 14 17 1020.9 - - - - - - - - -
05/08:30pm 19.8 E 15 18 1020.8 - - - - - - - - -
05/08:20pm 19.8 E 15 19 1020.7 - - - - - - - - -
05/08:10pm 19.9 E 15 18 1020.7 - - - - - - - - -
05/08:00pm 19.9 E 14 17 1020.6 - - - - - - - - -
05/07:50pm 19.9 E 14 16 1020.6 - - - - - - - - -
05/07:40pm 19.9 ENE 13 16 1020.6 - - - - - - - - -
05/07:30pm 20.0 ENE 12 16 1020.5 - - - - - - - - -
05/07:20pm 19.9 ENE 13 15 1020.5 - - - - - - - - -
05/07:10pm 20.0 ENE 13 15 1020.5 - - - - - - - - -
05/07:00pm 20.0 ENE 13 16 1020.5 - - - - - - - - -
05/06:50pm 20.0 ENE 12 15 1020.5 - - - - - - - - -
05/06:40pm 19.9 ENE 12 14 1020.5 - - - - - - - - -
05/06:30pm 19.8 E 11 14 1020.5 - - - - - - - - -
05/06:20pm 19.9 E 11 13 1020.6 - - - - - - - - -
05/06:10pm 19.9 E 11 13 1020.7 - - - - - - - - -
05/06:00pm 20.0 E 10 13 1020.8 - - - - - - - - -
05/05:50pm 19.9 E 9 11 1020.9 - - - - - - - - -
05/05:40pm 19.9 E 9 11 1021.0 - - - - - - - - -
05/05:30pm 20.0 E 8 12 1021.1 - - - - - - - - -
05/05:20pm 20.0 E 9 11 1021.1 - - - - - - - - -
05/05:10pm 20.0 E 9 11 1021.1 - - - - - - - - -
05/05:00pm 20.0 E 9 12 1021.2 - - - - - - - - -
05/04:50pm 20.0 E 10 12 1021.3 - - - - - - - - -
05/04:40pm 20.1 E 10 13 1021.3 - - - - - - - - -
05/04:30pm 20.2 E 9 12 1021.4 - - - - - - - - -
05/04:20pm 20.2 E 10 13 1021.5 - - - - - - - - -
05/04:10pm 20.2 E 11 14 1021.6 - - - - - - - - -
05/04:00pm 20.3 E 10 12 1021.6 - - - - - - - - -
05/03:50pm 20.3 E 11 14 1021.7 - - - - - - - - -
05/03:40pm 20.4 E 10 13 1021.8 - - - - - - - - -
05/03:30pm 20.4 ENE 11 13 1021.9 - - - - - - - - -
05/03:20pm 20.5 E 9 12 1021.9 - - - - - - - - -
05/03:10pm 20.6 ENE 9 13 1021.9 - - - - - - - - -
05/03:00pm 20.7 ENE 9 12 1022.0 - - - - - - - - -
05/02:50pm 21.0 ENE 11 13 1022.1 - - - - - - - - -
05/02:40pm 21.0 ENE 8 13 1022.1 - - - - - - - - -
05/02:30pm 20.8 ENE 9 12 1022.3 - - - - - - - - -
05/02:20pm 20.8 ENE 8 10 1022.4 - - - - - - - - -
05/02:10pm 20.9 ENE 9 11 1022.4 - - - - - - - - -
05/02:00pm 20.8 ENE 8 11 1022.5 - - - - - - - - -
05/01:50pm 20.9 ENE 7 10 1022.6 - - - - - - - - -
05/01:40pm 20.7 ENE 6 9 1022.6 - - - - - - - - -
05/01:30pm 20.5 ENE 8 11 1022.7 - - - - - - - - -
05/01:20pm 20.5 ENE 7 11 1022.7 - - - - - - - - -
05/01:10pm 20.5 ENE 8 12 1022.8 - - - - - - - - -
05/01:00pm 20.3 ENE 8 11 1022.9 - - - - - - - - -
05/12:50pm 20.2 E 9 12 1022.9 - - - - - - - - -
05/12:40pm 20.3 E 11 14 1022.9 - - - - - - - - -
05/12:30pm 20.5 E 11 14 1022.9 - - - - - - - - -
05/12:20pm 21.0 E 11 14 1022.8 - - - - - - - - -
05/12:10pm 21.1 E 9 13 1023.0 - - - - - - - - -
05/12:00pm 21.1 E 8 10 1023.0 - - - - - - - - -
05/11:50am 20.8 E 10 13 1022.9 - - - - - - - - -
05/11:40am 20.7 E 11 13 1022.9 - - - - - - - - -
05/11:30am 20.6 E 11 14 1022.9 - - - - - - - - -
05/11:20am 20.5 E 10 13 1022.9 - - - - - - - - -
05/11:10am 20.4 E 10 14 1022.9 - - - - - - - - -
05/11:00am 20.3 E 11 14 1022.9 - - - - - - - - -
05/10:50am 20.2 E 10 14 1022.8 - - - - - - - - -
05/10:40am 20.0 E 11 15 1022.7 - - - - - - - - -
05/10:30am 20.1 E 12 15 1022.6 - - - - - - - - -
05/10:20am 20.0 E 12 15 1022.4 - - - - - - - - -
05/10:10am 19.9 E 12 15 1022.3 - - - - - - - - -
05/10:00am 19.8 E 13 17 1022.2 - - - - - - - - -
05/09:40am 19.6 E 11 14 1022.1 - - - - - - - - -
05/09:30am 19.5 E 11 14 1022.0 - - - - - - - - -
05/09:20am 19.8 E 13 16 1021.9 - - - - - - - - -
05/09:10am 20.9 E 13 16 1021.7 - - - - - - - - -
05/09:00am 21.4 E 10 15 1021.7 - - - - - - - - -
05/08:50am 21.3 E 9 12 1021.6 - - - - - - - - -
05/08:40am 20.8 E 9 14 1021.5 - - - - - - - - -
05/08:30am 20.6 E 10 14 1021.5 - - - - - - - - -
05/08:20am 20.4 E 10 15 1021.4 - - - - - - - - -
05/08:10am 20.2 E 11 14 1021.3 - - - - - - - - -
05/08:00am 19.9 E 12 15 1021.2 - - - - - - - - -
05/07:50am 19.5 ESE 12 15 1021.1 - - - - - - - - -
05/07:40am 19.4 ESE 13 17 1021.0 - - - - - - - - -
05/07:30am 19.4 ESE 16 20 1020.8 - - - - - - - - -
05/07:20am 19.5 ESE 13 16 1020.8 - - - - - - - - -
05/07:10am 19.4 ESE 12 15 1020.7 - - - - - - - - -
05/07:00am 19.4 E 11 13 1020.6 - - - - - - - - -
05/06:50am 19.4 E 11 14 1020.4 - - - - - - - - -
05/06:40am 19.5 E 12 15 1020.4 - - - - - - - - -
05/06:30am 19.6 E 10 14 1020.3 - - - - - - - - -
05/06:20am 19.6 E 10 13 1020.2 - - - - - - - - -
05/06:10am 19.6 E 9 13 1020.1 - - - - - - - - -
05/06:00am 19.6 E 10 13 1020.1 - - - - - - - - -
05/05:50am 19.7 E 11 14 1020.0 - - - - - - - - -
05/05:40am 19.7 E 12 16 1019.9 - - - - - - - - -
05/05:30am 19.8 ESE 11 14 1019.9 - - - - - - - - -
05/05:20am 19.7 E 13 17 1019.9 - - - - - - - - -
05/05:10am 19.8 E 13 18 1019.9 - - - - - - - - -
05/05:00am 19.8 E 14 16 1019.9 - - - - - - - - -
05/04:50am 19.8 E 12 16 1019.9 - - - - - - - - -
05/04:40am 19.6 E 10 16 1019.9 - - - - - - - - -
05/04:30am 19.4 E 10 13 1019.9 - - - - - - - - -
05/04:20am 19.5 E 9 15 1020.0 - - - - - - - - -
05/04:10am 19.5 E 10 14 1020.0 - - - - - - - - -
05/04:00am 19.6 E 9 11 1020.1 - - - - - - - - -
05/03:50am 19.6 E 9 12 1020.1 - - - - - - - - -
05/03:40am 19.6 E 10 13 1020.1 - - - - - - - - -
05/03:30am 19.7 E 10 14 1020.1 - - - - - - - - -
05/03:20am 19.7 E 9 13 1020.1 - - - - - - - - -
05/03:10am 19.7 ENE 9 12 1020.2 - - - - - - - - -
05/03:00am 19.9 E 9 12 1020.3 - - - - - - - - -
05/02:50am 19.9 E 11 14 1020.3 - - - - - - - - -
05/02:40am 19.8 E 12 16 1020.3 - - - - - - - - -
05/02:30am 19.7 E 11 15 1020.4 - - - - - - - - -
05/02:20am 19.6 E 12 15 1020.5 - - - - - - - - -
05/02:10am 19.6 E 12 16 1020.5 - - - - - - - - -
05/02:00am 19.5 ENE 9 14 1020.5 - - - - - - - - -
05/01:50am 19.5 ENE 9 12 1020.5 - - - - - - - - -
05/01:40am 19.5 ENE 9 12 1020.6 - - - - - - - - -
05/01:30am 19.5 ENE 7 10 1020.5 - - - - - - - - -
05/01:20am 19.4 ENE 6 9 1020.6 - - - - - - - - -
05/01:10am 19.3 ENE 8 11 1020.6 - - - - - - - - -
05/01:00am 19.4 ENE 8 12 1020.6 - - - - - - - - -
05/12:50am 19.3 ENE 8 11 1020.7 - - - - - - - - -
05/12:40am 19.3 ENE 8 11 1020.6 - - - - - - - - -
05/12:30am 19.3 ENE 7 11 1020.6 - - - - - - - - -
05/12:20am 19.3 ENE 7 11 1020.6 - - - - - - - - -
05/12:10am 19.3 ENE 6 9 1020.6 - - - - - - - - -
05/12:00am 19.3 ENE 6 9 1020.7 - - - - - - - - -
 
Date/Time
EDT
Temp

°C
Wind Pressure Rain
since 9am
mm
Weather Cloud Vis
km
Sea
Height
m
Swell
Dir
 
Speed
knots
Gust
knots
hPa Trend Height
m
Period
s
Dir
04/11:50pm 19.4 ENE 7 10 1020.6 - - - - - - - - -
04/11:40pm 19.4 ENE 6 9 1020.7 - - - - - - - - -
04/11:30pm 19.4 ENE 5 7 1020.8 - - - - - - - - -
04/11:20pm 19.4 ENE 4 6 1020.9 - - - - - - - - -
04/11:10pm 19.3 ENE 4 7 1020.9 - - - - - - - - -
04/11:00pm 19.4 ENE 3 5 1020.9 - - - - - - - - -
04/10:50pm 19.3 ENE 3 5 1020.8 - - - - - - - - -
04/10:40pm 19.3 E 2 4 1020.7 - - - - - - - - -
04/10:30pm 19.3 E 3 6 1020.7 - - - - - - - - -
04/10:20pm 19.3 E 4 6 1020.5 - - - - - - - - -
04/10:10pm 19.3 E 5 8 1020.4 - - - - - - - - -
04/10:00pm 19.3 E 6 9 1020.4 - - - - - - - - -
04/09:50pm 19.4 E 7 10 1020.2 - - - - - - - - -
04/09:40pm 19.4 E 7 10 1020.2 - - - - - - - - -
04/09:30pm 19.4 E 7 9 1020.1 - - - - - - - - -
04/09:20pm 19.4 ENE 7 9 1020.1 - - - - - - - - -
04/09:10pm 19.5 ENE 6 8 1020.0 - - - - - - - - -
04/09:00pm 19.5 ENE 7 9 1019.9 - - - - - - - - -
04/08:50pm 19.6 E 6 9 1019.8 - - - - - - - - -
04/08:40pm 19.6 E 6 9 1019.7 - - - - - - - - -
04/08:30pm 19.6 ENE 7 10 1019.5 - - - - - - - - -
04/08:20pm 19.6 ENE 6 9 1019.3 - - - - - - - - -
04/08:10pm 19.6 ENE 6 10 1019.2 - - - - - - - - -
04/08:00pm 19.6 ENE 6 9 1019.1 - - - - - - - - -
04/07:50pm 19.6 E 5 8 1019.1 - - - - - - - - -
04/07:40pm 19.6 ENE 5 8 1019.0 - - - - - - - - -
04/07:30pm 19.6 E 5 8 1018.9 - - - - - - - - -
04/07:20pm 19.6 E 5 8 1018.8 - - - - - - - - -
04/07:10pm 19.6 E 5 8 1018.8 - - - - - - - - -
04/06:50pm 19.6 E 5 7 1018.7 - - - - - - - - -
04/06:40pm 19.6 E 5 7 1018.7 - - - - - - - - -
04/06:30pm 19.6 E 5 7 1018.8 - - - - - - - - -
04/06:20pm 19.6 E 4 7 1018.8 - - - - - - - - -
04/06:10pm 19.6 E 5 7 1018.9 - - - - - - - - -
04/06:00pm 19.6 E 5 7 1018.8 - - - - - - - - -
04/05:50pm 19.6 E 5 7 1018.8 - - - - - - - - -
04/05:40pm 19.6 ENE 5 9 1018.8 - - - - - - - - -
04/05:30pm 19.6 ENE 6 8 1018.9 - - - - - - - - -
04/05:20pm 19.6 E 5 8 1018.9 - - - - - - - - -
04/05:10pm 19.6 E 6 9 1018.9 - - - - - - - - -
04/05:00pm 19.6 E 6 8 1018.9 - - - - - - - - -

Other Formats:

Comma delimited format used in spreadsheet applications
http://www.bom.gov.au/fwo/IDV60701/IDV60701.55039.axf

JavaScript Object Notation format (JSON) in row-major order
http://www.bom.gov.au/fwo/IDV60701/IDV60701.55039.json